This is the latest recevied weather packets stored in our database for station/object EA1GGY-1. If no packets are shown the sender has not sent any weather packets the latest 10 day(s).
| Time | Temp. | Humidity | Pressure | Rain* | Wind** | Luminosity | Snow |
|---|---|---|---|---|---|---|---|
| 1778098194 | 10° C | 75% | 1007.5 hPa | - | - | - | - |
| 1778096392 | 10.56° C | 72% | 1007.3 hPa | - | - | - | - |
| 1778095790 | 11.11° C | 72% | 1007.3 hPa | - | - | - | - |
| 1778095190 | 11.11° C | 70% | 1007.2 hPa | - | - | - | - |
| 1778094590 | 11.11° C | 69% | 1007.1 hPa | - | - | - | - |
| 1778093988 | 12.22° C | 64% | 1007 hPa | - | - | - | - |
| 1778093387 | 11.67° C | 69% | 1007.1 hPa | - | - | - | - |
| 1778092786 | 12.22° C | 68% | 1006.9 hPa | - | - | - | - |
| 1778092186 | 12.22° C | 64% | 1006.9 hPa | - | - | - | - |
| 1778091585 | 12.22° C | 64% | 1006.9 hPa | - | - | - | - |
| 1778090989 | 12.22° C | 64% | 1006.9 hPa | - | - | - | - |
| 1778090383 | 12.22° C | 64% | 1006.9 hPa | - | - | - | - |
| 1778088581 | 12.22° C | 64% | 1007.1 hPa | - | - | - | - |
| 1778087980 | 12.22° C | 67% | 1007.2 hPa | - | - | - | - |
| 1778087380 | 11.67° C | 66% | 1007.2 hPa | - | - | - | - |
| 1778086778 | 12.22° C | 63% | 1007.2 hPa | - | - | - | - |
| 1778086179 | 12.22° C | 61% | 1007.2 hPa | - | - | - | - |
| 1778085577 | 12.78° C | 61% | 1007 hPa | - | - | - | - |
| 1778084976 | 12.78° C | 59% | 1007.1 hPa | - | - | - | - |
| 1778084376 | 12.78° C | 56% | 1007 hPa | - | - | - | - |
| 1778083774 | 12.78° C | 63% | 1007.1 hPa | - | - | - | - |
| 1778083174 | 12.78° C | 62% | 1007.1 hPa | - | - | - | - |
| 1778082573 | 12.78° C | 59% | 1007.3 hPa | - | - | - | - |
| 1778081972 | 12.22° C | 60% | 1007.3 hPa | - | - | - | - |
| 1778081371 | 12.78° C | 60% | 1007.4 hPa | - | - | - | - |
* Rain since midnight (hover to see other rain measurements)
** Current wind speed in m/s (hover to see current wind gust speed)